Flag for Egypt Weather past 2 weeks in Al Jizah, Egypt

Now
55 °F

Clear.


Feels Like: 55 °F
Forecast: 52 / 79 °F
Wind: 5 mph from North

Location: Cairo Airport

Current Time: Mar 5, 2015 at 5:39:52 AM

Latest Report: Mar 5, 2015 at 3:30 AM


Visibility: 4 mi

Pressure: 30.09 "Hg

Humidity: 88%

Dew point: 52 °F

Location of Al JizahLocation

Historic Weather in Al Jizah — Graph

°F

Al Jizah temperature yesterday

Maximum temperature yesterday: 70 °F (at 3:00 PM)
Minimum temperature yesterday: 55 °F (at 5:00 AM)
Average temperature yesterday: 62 °F

Past Weeks' High & Low Weather Summary

 TemperatureHumidityPressure
High84 °F (Feb 27, 3:30 PM)94% (Feb 18, 6:30 AM)30.21 "Hg (Feb 18, 6:30 AM)
Low43 °F (Feb 20, 2:30 AM)11% (Feb 27, 5:00 PM)29.77 "Hg (Feb 24, 3:30 AM)
Average59 °F58%30.05 "Hg
* Reported Feb 18 3:00 AM — Mar 5 3:30 AM, Al Jizah, Weather by CustomWeather, © 2015

Note: Actual official high and low records may vary slightly from our data, if they occured in-between our weather recording intervals... More about our weather records

Advertising

Al Jizah weather history for previous 24 hours

 ConditionsComfort  
Time TempWeatherWind HumidityBarometerVisibility
3:30 AM
Thu, Mar 5
55 °FClear.5 mph88%30.09 "Hg4 mi
3:00 AM55 °FClear.No wind88%30.09 "Hg4 mi
2:30 AM55 °FClear.2 mph88%30.12 "Hg10 mi
2:00 AM55 °FClear.2 mph88%30.12 "Hg10 mi
1:30 AM55 °FClear.1 mph82%30.12 "Hg10 mi
12:30 AM57 °FClear.No wind77%30.12 "Hg10 mi
12:00 AM57 °FClear.1 mph77%30.12 "Hg10 mi
11:00 PM
Wed, Mar 4
59 °FClear.5 mph72%30.15 "Hg10 mi
10:30 PM59 °FClear.5 mph72%30.15 "Hg10 mi
9:30 PM61 °FClear.7 mph68%30.15 "Hg10 mi
9:00 PM61 °FClear.7 mph68%30.15 "Hg10 mi
8:30 PM61 °FClear.7 mph68%30.15 "Hg10 mi
8:00 PM63 °FClear.9 mph64%30.15 "Hg10 mi
7:30 PM63 °FPassing clouds.8 mph64%30.12 "HgN/A
7:00 PM63 °FPassing clouds.10 mph59%30.12 "HgN/A
6:30 PM64 °FPassing clouds.10 mph52%30.12 "HgN/A
5:30 PM68 °FPartly sunny.12 mph49%30.12 "HgN/A
5:00 PM68 °FPartly sunny.10 mph49%30.12 "HgN/A
4:30 PM68 °FPartly sunny.6 mph46%30.12 "HgN/A
4:00 PM68 °FPartly sunny.7 mph46%30.12 "HgN/A
3:30 PM70 °FPartly sunny.7 mph40%30.09 "HgN/A
3:00 PM70 °FPartly sunny.7 mph40%30.12 "HgN/A
2:30 PM68 °FPartly sunny.7 mph46%30.12 "HgN/A
1:30 PM68 °FPartly sunny.7 mph46%30.15 "HgN/A
1:00 PM68 °FPartly sunny.6 mph49%30.15 "HgN/A
12:30 PM66 °FPartly sunny.8 mph52%30.15 "HgN/A
12:00 PM66 °FPartly sunny.8 mph52%30.18 "HgN/A
11:30 AM68 °FPartly sunny.10 mph53%30.18 "HgN/A
11:00 AM64 °FPartly sunny.9 mph60%30.18 "HgN/A
10:30 AM64 °FScattered clouds.8 mph64%30.18 "Hg4 mi
10:00 AM63 °FScattered clouds.8 mph68%30.21 "Hg4 mi
9:30 AM63 °FScattered clouds.7 mph73%30.21 "Hg4 mi
9:00 AM61 °FScattered clouds.5 mph68%30.21 "Hg4 mi
8:30 AM61 °FFog.5 mph72%30.21 "Hg2 mi
8:00 AM59 °FFog.5 mph72%30.21 "Hg2 mi
7:30 AM59 °FFog.2 mph72%30.18 "Hg2 mi
7:00 AM59 °FFog.2 mph72%30.18 "Hg2 mi
6:30 AM57 °FPartly sunny.2 mph77%30.18 "Hg4 mi
6:00 AM57 °FPassing clouds.2 mph72%30.18 "Hg4 mi
5:30 AM55 °FPassing clouds.2 mph82%30.18 "Hg4 mi
5:00 AM55 °FPassing clouds.2 mph82%30.18 "Hg4 mi
Weather by CustomWeather, © 2015

See weather overviewHow to use our weather pages